ミュラー彗星

C/1993 Q1 ( Mueller )

English version
Home page
Updated on November 10, 2002

---------------------------------------------------------------------

・ プロフィール

発見日 1993年8月16日
発見光度 14.5等
発見者 Jean Mueller (Second Palomar Sky Survey)

・ 軌道要素

                    Epoch = 1994 Mar. 29.0 TT
     T = 1994 Mar. 26.2796 TT         Peri. = 261.0331
     e = 1.000279                     Node  = 193.7889  2000.0
     q = 0.967273 AU                  Incl. = 105.0261

・ 光度変化

        m1 = 7.5 + 5 logΔ +  9.0 log r  [  ,30]  (              〜1994年 4月25日)
        m1 = 7.7 + 5 logΔ + 30   log r  [30,  ]  (1994年 4月25日〜              )

        ※ 灰色の曲線は、m1 = 7.5 + 5 logΔ + 9.0 log r の光度曲線です。

---------------------------------------------------------------------

軌道要素はIAUC 5942に掲載されたものです。
光度グラフはComet for Windowsで作成したものです。

---------------------------------------------------------------------

Copyright(C) Seiichi Yoshida (comet@aerith.net). All rights reserved.